TimeEDT,TemperatureF,Dew PointF,Humidity,Sea Level PressureIn,VisibilityMPH,Wind Direction,Wind SpeedMPH,Gust SpeedMPH,PrecipitationIn,Events,Conditions,WindDirDegrees,DateUTC
12:51 AM,54.0,52.0,93,30.16,10.0,ESE,5.8,-,N/A,,Overcast,120,2012-10-04 04:51:00
1:51 AM,54.0,52.0,93,30.16,10.0,ESE,3.5,-,N/A,,Overcast,120,2012-10-04 05:51:00
2:51 AM,54.0,52.0,93,30.15,10.0,ESE,3.5,-,N/A,,Overcast,120,2012-10-04 06:51:00
3:51 AM,57.0,53.1,87,30.15,10.0,South,5.8,-,N/A,,Overcast,170,2012-10-04 07:51:00
4:51 AM,57.0,53.1,87,30.15,10.0,South,5.8,-,N/A,,Overcast,170,2012-10-04 08:51:00
5:51 AM,55.9,52.0,87,30.17,10.0,SSW,4.6,-,N/A,,Overcast,200,2012-10-04 09:51:00
6:51 AM,57.0,53.1,87,30.17,10.0,South,6.9,-,N/A,,Overcast,170,2012-10-04 10:51:00
7:51 AM,57.0,53.1,87,30.17,10.0,South,8.1,-,N/A,,Mostly Cloudy,170,2012-10-04 11:51:00
8:51 AM,57.9,53.1,84,30.19,10.0,South,5.8,-,N/A,,Overcast,190,2012-10-04 12:51:00
9:51 AM,61.0,54.0,78,30.18,10.0,SSW,5.8,-,N/A,,Mostly Cloudy,210,2012-10-04 13:51:00
10:51 AM,64.4,53.6,68,30.18,10.0,SW,8.1,-,N/A,,Scattered Clouds,220,2012-10-04 14:51:00
11:51 AM,69.8,51.8,53,30.18,10.0,WSW,17.3,-,N/A,,Scattered Clouds,240,2012-10-04 15:51:00
12:51 PM,70.0,51.1,51,30.16,10.0,SW,12.7,21.9,N/A,,Scattered Clouds,220,2012-10-04 16:51:00
1:51 PM,72.0,50.0,46,30.14,10.0,SW,12.7,23.0,N/A,,Scattered Clouds,220,2012-10-04 17:51:00
2:51 PM,73.0,51.1,46,30.12,10.0,WSW,16.1,25.3,N/A,,Mostly Cloudy,250,2012-10-04 18:51:00
3:51 PM,70.0,51.1,51,30.12,10.0,WSW,10.4,-,N/A,,Mostly Cloudy,250,2012-10-04 19:51:00
4:51 PM,71.1,52.0,51,30.11,10.0,WSW,8.1,-,N/A,,Mostly Cloudy,250,2012-10-04 20:51:00
5:51 PM,70.0,52.0,53,30.12,10.0,WSW,10.4,-,N/A,,Mostly Cloudy,250,2012-10-04 21:51:00
6:51 PM,64.9,52.0,63,30.12,10.0,SW,3.5,-,N/A,,Scattered Clouds,220,2012-10-04 22:51:00
7:51 PM,61.0,53.1,75,30.13,10.0,SSW,3.5,-,N/A,,Clear,200,2012-10-04 23:51:00
8:51 PM,62.1,52.0,70,30.12,10.0,SSW,3.5,-,N/A,,Clear,200,2012-10-05 00:51:00
9:51 PM,61.0,52.0,72,30.12,10.0,South,5.8,-,N/A,,Clear,180,2012-10-05 01:51:00
10:51 PM,60.8,51.8,72,30.12,10.0,South,5.8,-,N/A,,Clear,180,2012-10-05 02:51:00
11:51 PM,59.0,52.0,78,30.10,10.0,South,6.9,-,N/A,,Clear,170,2012-10-05 03:51:00